FW4226 Weather Reports


time (UTC)temp
C
wind
direction
speed
KPH
gust
KPH
rain 1hr
cm
rain 24hr
cm
rain mn
cm
humidity
%
barometer
mb
20260510161500 12 38 4.8 14.5 0.00 0.00 0.00 64 1016.0
20260510161001 12 38 3.2 14.5 0.00 0.00 0.00 64 1016.0
20260510160500 12 302 3.2 16.1 0.00 0.00 0.00 64 1015.9
20260510155500 12 38 3.2 11.3 0.00 0.00 0.00 64 1016.1
20260510155000 12 355 3.2 11.3 0.00 0.00 0.00 64 1016.2
20260510154500 12 5 3.2 11.3 0.00 0.00 0.00 65 1016.2
20260510153500 12 109 4.8 16.1 0.00 0.00 0.00 66 1016.3
20260510153000 12 43 3.2 16.1 0.00 0.00 0.00 65 1016.3
20260510152000 12 334 3.2 12.9 0.00 0.00 0.00 67 1016.4
20260510151500 12 146 4.8 11.3 0.00 0.00 0.00 67 1016.4
20260510151001 12 103 4.8 12.9 0.00 0.00 0.00 67 1016.5
20260510150501 12 22 3.2 12.9 0.00 0.00 0.00 66 1016.6
20260510150005 12 300 3.2 9.7 0.00 0.00 0.00 67 1016.6
20260510145501 12 5 3.2 11.3 0.00 0.00 0.00 66 1016.6
20260510145002 12 22 3.2 11.3 0.00 0.00 0.00 68 1016.6
20260510144500 12 64 3.2 11.3 0.00 0.00 0.00 69 1016.6
20260510143500 11 355 3.2 9.7 0.00 0.00 0.00 70 1016.8
20260510143000 11 6 4.8 9.7 0.00 0.00 0.00 69 1016.8
20260510142500 11 237 4.8 12.9 0.00 0.00 0.00 70 1016.9
20260510142001 11 360 4.8 12.9 0.00 0.00 0.00 70 1017.0
20260510141500 11 7 4.8 14.5 0.00 0.00 0.00 70 1017.1
20260510141002 11 36 4.8 14.5 0.00 0.00 0.00 69 1017.0
20260510140500 11 22 4.8 14.5 0.00 0.00 0.00 69 1017.1
20260510140005 11 338 4.8 16.1 0.00 0.00 0.00 70 1017.0
20260510135501 11 86 4.8 12.9 0.00 0.00 0.00 72 1017.1
20260510135001 11 37 3.2 12.9 0.00 0.00 0.00 70 1016.9
20260510134500 11 14 3.2 9.7 0.00 0.00 0.00 71 1017.0
20260510134000 11 25 1.6 9.7 0.00 0.00 0.00 71 1017.1
20260510133500 11 19 3.2 11.3 0.00 0.00 0.00 72 1017.1
20260510132500 11 38 3.2 11.3 0.00 0.00 0.00 72 1017.2
20260510132001 11 294 4.8 14.5 0.00 0.00 0.00 72 1017.3
20260510131500 11 22 4.8 14.5 0.00 0.00 0.00 72 1017.2
20260510131000 11 5 4.8 14.5 0.00 0.00 0.00 72 1017.3
20260510130459 11 287 6.4 16.1 0.00 0.00 0.00 73 1017.3
20260510130005 11 51 6.4 16.1 0.00 0.00 0.00 72 1017.2
20260510125459 11 348 4.8 14.5 0.00 0.00 0.00 72 1017.4
20260510124459 11 300 6.4 17.7 0.00 0.00 0.00 72 1017.3
20260510124001 11 229 4.8 16.1 0.00 0.00 0.00 72 1017.5
20260510123501 11 25 4.8 19.3 0.00 0.00 0.00 72 1017.6
20260510123001 11 344 4.8 19.3 0.00 0.00 0.00 73 1017.5
20260510122459 11 339 4.8 14.5 0.00 0.00 0.00 73 1017.5
20260510122001 11 50 6.4 16.1 0.00 0.00 0.00 74 1017.5
20260510121501 11 266 4.8 16.1 0.00 0.00 0.00 73 1017.6
20260510121003 11 43 4.8 16.1 0.00 0.00 0.00 74 1017.7
20260510120502 11 157 4.8 16.1 0.00 0.00 0.00 74 1017.8
20260510120005 11 311 3.2 16.1 0.00 0.00 0.00 74 1017.7
20260510115459 11 351 4.8 11.3 0.00 0.00 0.00 74 1017.6
20260510115001 11 16 6.4 19.3 0.00 0.00 0.00 75 1017.9
20260510114459 11 41 6.4 19.3 0.00 0.00 0.00 74 1018.0
20260510114000 11 11 6.4 20.9 0.00 0.00 0.00 75 1018.1
20260510113500 11 19 6.4 20.9 0.00 0.00 0.00 75 1018.0
20260510113002 11 17 6.4 20.9 0.00 0.00 0.00 76 1018.0
20260510112500 11 82 6.4 20.9 0.00 0.00 0.00 77 1018.1
20260510112004 11 14 4.8 16.1 0.00 0.00 0.00 77 1018.4
20260510111500 11 17 4.8 14.5 0.00 0.00 0.00 77 1018.4
20260510111001 11 335 3.2 12.9 0.00 0.00 0.00 78 1018.3
20260510110500 11 358 3.2 9.7 0.00 0.00 0.00 78 1018.4
20260510105459 11 36 4.8 20.9 0.00 0.00 0.00 78 1018.4
20260510104959 11 342 4.8 24.1 0.00 0.00 0.00 78 1018.4
20260510104458 11 294 4.8 24.1 0.00 0.00 0.00 78 1018.4
20260510103959 11 278 3.2 12.9 0.00 0.00 0.00 78 1018.4
20260510103459 11 338 4.8 19.3 0.00 0.00 0.00 78 1018.5
20260510102459 11 327 4.8 14.5 0.00 0.00 0.00 78 1018.4
20260510101459 11 14 4.8 14.5 0.00 0.00 0.00 79 1018.4
20260510101001 11 47 4.8 12.9 0.00 0.00 0.00 79 1018.4
20260510100459 11 340 4.8 19.3 0.00 0.00 0.00 79 1018.4
20260510100004 11 24 4.8 11.3 0.00 0.00 0.00 80 1018.5
20260510095501 10 356 3.2 11.3 0.00 0.00 0.00 79 1018.6
20260510095002 10 318 3.2 11.3 0.00 0.00 0.00 80 1018.6
20260510094500 10 68 3.2 11.3 0.00 0.00 0.00 80 1018.7
20260510093959 10 320 4.8 19.3 0.00 0.00 0.00 81 1018.7
20260510093002 10 29 4.8 17.7 0.00 0.00 0.00 81 1018.6
20260510092500 10 360 4.8 17.7 0.00 0.00 0.00 81 1018.6
20260510092001 10 105 3.2 14.5 0.00 0.00 0.00 82 1018.6
20260510091459 10 16 4.8 14.5 0.00 0.00 0.00 81 1018.7
20260510090459 11 345 4.8 17.7 0.00 0.00 0.00 80 1018.7
20260510090004 11 268 4.8 12.9 0.00 0.00 0.00 81 1018.7
20260510085459 10 358 4.8 16.1 0.00 0.00 0.00 81 1018.9
20260510084958 10 31 4.8 16.1 0.00 0.00 0.00 81 1018.9
20260510084459 10 131 3.2 14.5 0.00 0.00 0.00 81 1019.0
20260510083458 11 346 3.2 9.7 0.00 0.00 0.00 81 1018.8
20260510082959 10 262 4.8 14.5 0.00 0.00 0.00 81 1018.8
20260510082459 10 325 4.8 14.5 0.00 0.00 0.00 81 1018.9
20260510081959 10 15 4.8 16.1 0.00 0.00 0.00 81 1018.8
20260510081459 10 322 4.8 16.1 0.00 0.00 0.00 81 1018.9
20260510080959 10 348 4.8 19.3 0.00 0.00 0.00 82 1018.8
20260510080005 10 308 6.4 12.9 0.00 0.00 0.00 82 1018.9
20260510075459 10 358 6.4 19.3 0.00 0.00 0.00 82 1018.8
20260510074959 9 19 6.4 14.5 0.00 0.00 0.00 82 1018.8
20260510074459 9 333 6.4 19.3 0.00 0.00 0.00 82 1018.9
20260510073959 9 10 4.8 19.3 0.00 0.00 0.00 82 1019.0
20260510073459 9 270 4.8 14.5 0.00 0.00 0.00 83 1018.9
20260510072959 9 17 4.8 14.5 0.00 0.00 0.00 83 1018.9
20260510072459 9 359 4.8 14.5 0.00 0.00 0.00 84 1018.9
20260510071459 9 31 6.4 24.1 0.00 0.00 0.00 83 1018.9
20260510070959 9 356 4.8 14.5 0.00 0.00 0.00 83 1018.9
20260510070459 9 228 4.8 14.5 0.00 0.00 0.00 84 1018.9
20260510070004 9 33 4.8 14.5 0.00 0.00 0.00 84 1018.9
20260510065459 9 60 4.8 17.7 0.00 0.00 0.00 84 1018.7
20260510064959 9 340 4.8 17.7 0.00 0.00 0.00 84 1018.7
20260510064459 9 320 6.4 17.7 0.00 0.00 0.00 84 1018.7
20260510063959 9 18 4.8 17.7 0.00 0.00 0.00 84 1018.7
20260510062458 9 216 6.4 20.9 0.00 0.00 0.00 85 1018.7
20260510061959 8 358 4.8 20.9 0.00 0.00 0.00 85 1018.5
20260510061000 8 149 6.4 19.3 0.00 0.00 0.00 85 1018.5
20260510060458 8 351 4.8 14.5 0.00 0.00 0.00 86 1018.6
20260510060006 8 86 4.8 19.3 0.00 0.00 0.00 86 1018.5
20260510055458 8 26 6.4 19.3 0.00 0.00 0.00 86 1018.6
20260510054959 8 360 4.8 16.1 0.00 0.00 0.00 86 1018.4
20260510054458 8 39 4.8 12.9 0.00 0.00 0.00 86 1018.4
20260510053958 8 341 4.8 12.9 0.00 0.00 0.00 86 1018.4
20260510053458 8 36 4.8 14.5 0.00 0.00 0.00 86 1018.4
20260510052959 8 97 1.6 14.5 0.00 0.00 0.00 86 1018.4
20260510052458 8 279 1.6 14.5 0.00 0.00 0.00 86 1018.5
20260510051457 8 334 3.2 9.7 0.00 0.00 0.00 86 1018.5
20260510050958 8 24 3.2 12.9 0.00 0.00 0.00 86 1018.5
20260510050458 8 293 4.8 12.9 0.00 0.00 0.00 86 1018.5
20260510050002 8 10 4.8 14.5 0.00 0.00 0.00 86 1018.5
20260510045457 8 355 3.2 11.3 0.00 0.00 0.00 86 1018.7
20260510044959 8 4 4.8 11.3 0.00 0.00 0.00 87 1018.8
20260510044458 8 269 4.8 16.1 0.00 0.00 0.00 87 1018.6
20260510043959 8 38 4.8 16.1 0.00 0.00 0.00 87 1018.4
20260510043458 8 38 3.2 11.3 0.00 0.00 0.00 87 1018.6
20260510043000 8 269 3.2 9.7 0.00 0.00 0.00 87 1018.5
20260510042458 8 37 3.2 9.7 0.00 0.00 0.00 87 1018.5
20260510041458 8 351 4.8 11.3 0.00 0.00 0.00 87 1018.4
20260510040959 8 358 4.8 12.9 0.00 0.00 0.00 86 1018.5
20260510040002 8 359 3.2 16.1 0.00 0.00 0.00 86 1018.6
20260510035458 8 43 3.2 16.1 0.00 0.00 0.00 86 1018.6
20260510034958 8 46 3.2 16.1 0.00 0.00 0.00 86 1018.6
20260510034458 8 7 3.2 16.1 0.00 0.00 0.00 86 1018.6
20260510033958 8 71 1.6 16.1 0.00 0.00 0.00 86 1018.6
20260510033458 8 26 1.6 16.1 0.00 0.00 0.00 86 1018.7
20260510032958 8 240 3.2 12.9 0.00 0.00 0.00 86 1018.6
20260510032459 8 12 3.2 12.9 0.00 0.00 0.00 86 1018.6
20260510031958 8 43 3.2 11.3 0.00 0.00 0.00 86 1018.7
20260510031458 8 33 1.6 11.3 0.00 0.00 0.00 86 1018.7
20260510030958 8 15 1.6 8.0 0.00 0.00 0.00 86 1018.7
20260510030458 8 11 1.6 14.5 0.00 0.00 0.00 86 1018.8
20260510030002 8 12 3.2 14.5 0.00 0.00 0.00 86 1018.7
20260510025501 8 293 3.2 12.9 0.00 0.00 0.00 86 1018.7
20260510024959 8 273 1.6 12.9 0.00 0.00 0.00 86 1018.8
20260510024458 8 313 3.2 12.9 0.00 0.00 0.00 86 1018.9
20260510024000 8 29 3.2 12.9 0.00 0.00 0.00 87 1019.1
20260510023458 8 14 3.2 14.5 0.00 0.00 0.00 86 1019.1
20260510022958 8 311 1.6 14.5 0.00 0.00 0.00 87 1019.0
20260510022458 8 6 0.0 6.4 0.00 0.00 0.00 87 1018.9
20260510021959 8 41 0.0 4.8 0.00 0.00 0.00 86 1019.0
20260510021457 8 11 0.0 4.8 0.00 0.00 0.00 86 1018.9
20260510020959 8 355 1.6 17.7 0.00 0.00 0.00 86 1018.9
20260510020457 8 352 1.6 12.9 0.00 0.00 0.00 86 1018.9
20260510020002 8 29 1.6 11.3 0.00 0.00 0.00 86 1019.0
20260510015458 8 341 1.6 11.3 0.00 0.00 0.00 86 1019.1
20260510014958 8 311 0.0 6.4 0.00 0.00 0.00 86 1019.0
20260510014458 8 108 0.0 6.4 0.00 0.00 0.00 86 1019.1
20260510013458 8 341 0.0 6.4 0.00 0.00 0.00 85 1019.0
20260510011957 8 41 1.6 9.7 0.00 0.00 0.00 85 1019.0
20260510011457 8 292 1.6 9.7 0.00 0.00 0.00 86 1018.9
20260510010958 8 316 0.0 9.7 0.00 0.00 0.00 86 1019.0
20260510010456 8 343 0.0 9.7 0.00 0.00 0.00 86 1018.9
20260510005000 8 354 0.0 1.6 0.00 0.00 0.00 86 1019.0
20260510004458 8 22 0.0 6.4 0.00 0.00 0.00 86 1019.0
20260510003957 8 351 0.0 4.8 0.00 0.00 0.00 86 1019.0
20260510003457 8 11 0.0 4.8 0.00 0.00 0.00 86 1019.0
20260510002957 8 289 0.0 3.2 0.00 0.00 0.00 86 1019.0
20260510000959 9 254 0.0 8.0 0.00 0.00 0.00 86 1019.1
20260510000459 9 339 1.6 8.0 0.00 0.00 0.00 85 1019.0
20260510000001 9 326 1.6 8.0 0.00 0.00 0.00 85 1019.0
20260509235457 9 335 1.6 8.0 0.00 0.00 0.00 84 1019.1
20260509234957 9 306 0.0 8.0 0.00 0.00 0.00 83 1019.1
20260509234456 9 310 0.0 4.8 0.00 0.00 0.00 82 1019.0
20260509233957 10 5 0.0 9.7 0.00 0.00 0.00 81 1018.9
20260509232958 10 315 0.0 3.2 0.00 0.00 0.00 78 1019.1
20260509232457 10 54 0.0 8.0 0.00 0.00 0.00 76 1019.0
20260509231502 10 306 0.0 3.2 0.00 0.00 0.00 72 1019.1
20260509230502 10 339 1.6 6.4 0.00 0.00 0.00 67 1019.0
20260509230006 10 360 0.0 4.8 0.00 0.00 0.00 66 1019.1
20260509225502 10 28 0.0 3.2 0.00 0.00 0.00 65 1019.1
20260509225003 11 74 1.6 9.7 0.00 0.00 0.00 65 1019.0
20260509224501 11 355 1.6 11.3 0.00 0.00 0.00 64 1018.9
20260509224003 11 47 1.6 9.7 0.00 0.00 0.00 65 1018.8
20260509223502 10 8 0.0 4.8 0.00 0.00 0.00 68 1019.1
20260509223003 10 30 0.0 4.8 0.00 0.00 0.00 69 1019.0
20260509222502 10 31 0.0 4.8 0.00 0.00 0.00 73 1019.1
20260509221504 10 5 0.0 0.0 0.00 0.00 0.00 76 1019.0
20260509221003 10 5 0.0 0.0 0.00 0.00 0.00 75 1019.0
20260509220502 10 5 0.0 0.0 0.00 0.00 0.00 74 1018.9
20260509220008 10 5 0.0 0.0 0.00 0.00 0.00 75 1019.0
20260509215502 10 5 0.0 0.0 0.00 0.00 0.00 75 1018.9
20260509214501 10 5 0.0 0.0 0.00 0.00 0.00 74 1018.7
20260509214002 10 5 0.0 0.0 0.00 0.00 0.00 74 1018.7
20260509213500 11 4 0.0 0.0 0.00 0.00 0.00 74 1018.6
20260509213001 11 4 0.0 0.0 0.00 0.00 0.00 74 1018.6
20260509212501 11 4 0.0 0.0 0.00 0.00 0.00 74 1018.5
20260509212001 11 4 0.0 0.0 0.00 0.00 0.00 74 1018.6
20260509211501 11 4 0.0 0.0 0.00 0.00 0.00 73 1018.6
20260509211002 11 4 0.0 0.0 0.00 0.00 0.00 73 1018.6
20260509210502 11 4 0.0 0.0 0.00 0.00 0.00 73 1018.6
20260509210004 11 4 0.0 0.0 0.00 0.00 0.00 70 1018.5
20260509205501 11 4 0.0 0.0 0.00 0.00 0.00 69 1018.6
20260509205001 11 4 0.0 0.0 0.00 0.00 0.00 69 1018.5
20260509204500 11 4 0.0 0.0 0.00 0.00 0.00 70 1018.5
20260509204002 11 4 0.0 0.0 0.00 0.00 0.00 71 1018.4
20260509203501 11 4 0.0 0.0 0.00 0.00 0.00 73 1018.3
20260509203001 12 4 0.0 0.0 0.00 0.00 0.00 73 1018.2
20260509202000 12 5 0.0 0.0 0.00 0.00 0.00 72 1018.2
20260509201500 12 5 0.0 0.0 0.00 0.00 0.00 70 1018.2
20260509201001 12 5 0.0 0.0 0.00 0.00 0.00 69 1018.1
20260509200501 13 4 0.0 0.0 0.00 0.00 0.00 68 1018.0
20260509200006 13 5 0.0 0.0 0.00 0.00 0.00 66 1017.9
20260509195003 14 5 0.0 0.0 0.00 0.00 0.00 63 1017.9
20260509194503 14 5 0.0 0.0 0.00 0.00 0.00 61 1017.8
20260509194003 15 4 0.0 0.0 0.00 0.00 0.00 60 1017.8
20260509193502 15 5 0.0 1.6 0.00 0.00 0.00 59 1017.9
20260509192502 15 337 0.0 3.2 0.00 0.00 0.00 58 1017.7
20260509192001 15 304 0.0 3.2 0.00 0.00 0.00 57 1017.5
20260509190006 16 93 0.0 3.2 0.00 0.00 0.00 56 1017.5
20260509185500 16 100 1.6 8.0 0.00 0.00 0.00 56 1017.4
20260509185001 17 7 0.0 8.0 0.00 0.00 0.00 55 1017.4
20260509184501 17 121 0.0 3.2 0.00 0.00 0.00 55 1017.3
20260509184000 17 180 1.6 3.2 0.00 0.00 0.00 54 1017.1
20260509183501 17 27 1.6 6.4 0.00 0.00 0.00 53 1017.2
20260509183001 17 71 1.6 8.0 0.00 0.00 0.00 52 1017.2
20260509182500 17 307 1.6 8.0 0.00 0.00 0.00 51 1017.2
20260509181501 18 248 3.2 9.7 0.00 0.00 0.00 50 1017.0
20260509180500 18 117 1.6 6.4 0.00 0.00 0.00 48 1017.0
20260509175502 18 13 1.6 6.4 0.00 0.00 0.00 48 1017.0
20260509175000 18 306 1.6 11.3 0.00 0.00 0.00 49 1017.0
20260509174501 18 216 3.2 11.3 0.00 0.00 0.00 48 1016.9
20260509174001 18 92 1.6 8.0 0.00 0.00 0.00 49 1016.9
20260509173002 18 247 0.0 4.8 0.00 0.00 0.00 48 1016.8
20260509172003 18 315 1.6 6.4 0.00 0.00 0.00 49 1016.9
20260509171501 18 66 1.6 6.4 0.00 0.00 0.00 49 1016.9
20260509171001 18 303 1.6 6.4 0.00 0.00 0.00 49 1016.9
20260509170500 18 331 0.0 3.2 0.00 0.00 0.00 49 1017.0
20260509170006 18 342 0.0 3.2 0.00 0.00 0.00 49 1016.9
20260509165501 18 62 1.6 8.0 0.00 0.00 0.00 50 1017.1
20260509165001 18 1 1.6 9.7 0.00 0.00 0.00 48 1017.1
20260509164500 18 306 3.2 9.7 0.00 0.00 0.00 48 1017.1
20260509163459 19 330 3.2 12.9 0.00 0.00 0.00 46 1017.0
20260509163001 20 218 3.2 9.7 0.00 0.00 0.00 45 1017.0